Volver al catálogo

FENGYUN 1C DEB

ActivoSSO
NORAD 30941·DEBRIS·🇨🇳 China

Lanzado May 10, 1999 desde Taiyuan Satellite Launch Center

Loading…

Próximos Pases (próximas 24 horas)

TLE

EnvejeciendoSource: Space-Track

Época: Sep 11, 2026, 01:34 UTC

1 30941U 99025BAF 26254.06584541  .00002430  00000-0  89532-3 0  9993
2 30941  98.5317 111.7919 0029879 231.2512 128.6002 14.33225800  5206

Sigue FENGYUN 1C DEB en tiempo real con AllMySat

Download on the App Store